Location: Treviso
(45.6669°N, 12.2430°E)
Time: 01:12:44
(UTC+02:00)

CUBESAT XI-V - Pass Details

Date: 27 April 2019
Orbit: 668 x 694 km, 98.0° (Epoch: 25 May)

Event Time Altitude Azimuth Distance (km) Brightness Sun altitude
Exits shadow 03:57:20 35° 186° (S) 1,111 ? -19.5°
Maximum altitude 03:59:15 67° 258° (WSW) 745 ? -19.3°
Drops below altitude 10° 04:03:54 10° 342° (NNW) 2,137 ? -18.7°
Sets 04:06:10 0° 345° (NNW) 3,053 ? -18.4°
